Jackson, TN

9:07 PM CST on November 16, 2019 (GMT -0600)
McKellar-Sipes Regional

Weather History for KMKL - July, 2019

Change the Weather History Date:

Thursday, July 25, 2019

  Actual Average Record
Temperature  
Mean Temperature 70 °F 80 °F  
Max Temperature 84 °F 91 °F 101 °F (1952)
Min Temperature 55 °F 68 °F 55 °F (2019)
Degree Days  
Heating Degree Days 0 0  
Month to date heating degree days 0  
Since 1 June heating degree days 2  
Since 1 July heating degree days 0  
Cooling Degree Days 4 15  
Month to date cooling degree days 368  
Year to date cooling degree days 922  
Since 1 June cooling degree days 707  
Growing Degree Days 20 (Base 50)    
Moisture  
Dew Point 61 °F    
Average Humidity 76    
Maximum Humidity 100    
Minimum Humidity 45    
Precipitation  
Precipitation 0.00 in 0.15 in 2.39 in (1975)
Month to date precipitation 3.69  
Year to date precipitation 32.07  
Sea Level Pressure  
Sea Level Pressure 30.15 in    
Wind  
Wind Speed 1 mph (East)    
Max Wind Speed 7 mph    
Max Gust Speed -    
Visibility 10 miles    
Events      
T = Trace of Precipitation, MM = Missing Value Source: NWS Daily Summary

Daily Weather History Graph

Daily Weather History Graph

Search for Another Location

Airport or City:

Astronomy

Jul. 25, 2019 Rise Set
Actual Time 5:58 AM CDT 8:05 PM CDT
Civil Twilight 5:29 AM CDT 8:34 PM CDT
Nautical Twilight 4:54 AM CDT 9:08 PM CDT
Astronomical Twilight 4:17 AM CDT 9:46 PM CDT
Moon 12:35 AM CDT (7/25) 1:52 PM CDT (7/25)
Length of Visible Light 15h 04m
Length of Day
14h 07m
Last Quarter, 44% of the Moon is Illuminated
Jul 25
Last Quarter
Jul 31
New
Aug 7
First Quarter
Aug 15
Full
Aug 23
Last Quarter

Hourly Weather History & Observations

Time (CDT) Temp. Heat Index Dew Point Humidity Pressure Visibility Wind Dir Wind Speed Gust Speed Precip Events Conditions
12:53 AM 59.0 °F - 57.9 °F 96% 30.11 in 10.0 mi Calm Calm - N/A   Clear
1:53 AM 57.0 °F - 55.9 °F 96% 30.10 in 10.0 mi Calm Calm - N/A   Clear
2:53 AM 57.0 °F - 55.9 °F 96% 30.10 in 10.0 mi Calm Calm - N/A   Clear
3:53 AM 55.9 °F - 55.0 °F 97% 30.11 in 10.0 mi Calm Calm - N/A   Clear
4:53 AM 55.9 °F - 55.9 °F 100% 30.12 in 10.0 mi Calm Calm - N/A   Clear
5:53 AM 55.9 °F - 55.0 °F 97% 30.14 in 10.0 mi Calm Calm - N/A   Clear
6:53 AM 57.9 °F - 57.0 °F 97% 30.16 in 10.0 mi Calm Calm - N/A   Clear
7:53 AM 64.9 °F - 61.0 °F 87% 30.18 in 10.0 mi Calm Calm - N/A   Clear
8:53 AM 72.0 °F - 63.0 °F 73% 30.19 in 10.0 mi Variable 3.5 mph - N/A   Clear
9:53 AM 75.0 °F - 62.1 °F 64% 30.19 in 10.0 mi Calm Calm - N/A   Clear
10:53 AM 78.1 °F - 62.1 °F 58% 30.19 in 10.0 mi Calm Calm - N/A   Clear
11:53 AM 80.1 °F 81.1 °F 61.0 °F 52% 30.17 in 10.0 mi East 6.9 mph - N/A   Clear
12:53 PM 82.0 °F 82.1 °F 59.0 °F 45% 30.17 in 10.0 mi ESE 6.9 mph - N/A   Partly Cloudy
1:53 PM 82.9 °F 83.2 °F 60.1 °F 46% 30.15 in 10.0 mi ESE 6.9 mph - N/A   Clear
2:53 PM 84.0 °F 84.5 °F 62.1 °F 47% 30.14 in 10.0 mi East 6.9 mph - N/A   Partly Cloudy
3:53 PM 84.0 °F 84.4 °F 61.0 °F 46% 30.13 in 10.0 mi Calm Calm - N/A   Partly Cloudy
4:53 PM 84.0 °F 84.5 °F 62.1 °F 47% 30.12 in 10.0 mi East 6.9 mph - N/A   Mostly Cloudy
5:53 PM 82.9 °F 84.0 °F 63.0 °F 51% 30.13 in 10.0 mi Calm Calm - N/A   Clear
6:53 PM 81.0 °F 83.0 °F 66.0 °F 60% 30.13 in 10.0 mi East 3.5 mph - N/A   Partly Cloudy
7:53 PM 73.0 °F - 66.9 °F 81% 30.14 in 10.0 mi Calm Calm - N/A   Clear
8:53 PM 69.1 °F - 66.0 °F 90% 30.14 in 10.0 mi Calm Calm - N/A   Clear
9:53 PM 66.9 °F - 66.0 °F 97% 30.16 in 10.0 mi Calm Calm - N/A   Clear
10:53 PM 64.9 °F - 64.0 °F 97% 30.16 in 9.0 mi Calm Calm - N/A   Clear
11:53 PM 64.9 °F - 64.0 °F 97% 30.16 in 5.0 mi Calm Calm - N/A   Clear